Temperature
29 28 28 27 26 25 25 24 24 23 22 21 20 20 19 19 19 18 18 18 18 18 18 18 17 18 18 17 17 17 17 17 17 16 16 16 16 16 16 16 16 16 16
29 28 27 26 25 24 24 23 23 22 21 21 20 20 19 19 18 18 18 18 18 18 18 18 17 18 17 17 17 17 17 16 16 16 16 16 16 16 16 16 16 15 15
28 27 26 25 24 23 23 22 22 21 21 20 20 19 18 18 18 18 18 18 18 17 17 17 17 17 17 17 17 17 16 16 16 16 16 16 16 16 16 16 16 15 15
28 26 25 24 23 22 22 21 21 21 20 20 19 18 18 18 18 18 18 18 18 17 17 17 17 17 17 17 17 16 16 16 16 16 16 16 17 16 16 16 16 16 15
27 25 24 23 23 22 21 21 21 20 20 19 18 18 18 18 18 17 17 17 17 17 17 17 17 17 16 16 16 16 16 16 16 16 16 16 16 17 17 16 16 16 15
26 25 24 23 22 21 21 21 20 20 19 19 18 18 18 17 17 17 17 17 17 17 16 16 16 16 16 16 16 16 16 16 16 16 15 16 16 16 17 17 16 16 16
25 24 23 22 22 21 21 20 20 20 19 19 19 19 18 18 17 17 17 17 16 16 16 16 16 16 16 16 16 16 16 15 15 15 15 16 16 16 16 17 17 16 16
24 24 23 22 21 21 21 20 20 20 19 19 19 19 19 18 17 17 17 16 16 16 16 16 16 16 16 16 15 15 15 15 15 15 15 15 15 16 16 16 16 16 16
24 23 22 22 21 21 21 20 20 20 19 19 19 19 19 18 17 17 16 16 16 16 15 15 15 15 15 15 15 15 15 15 15 15 15 15 15 15 16 16 16 16 16
23 23 23 22 22 21 21 20 20 20 19 19 19 18 18 18 17 17 16 16 15 15 15 15 15 15 15 15 15 14 14 14 14 14 14 14 15 15 15 15 16 16 16
22 23 23 23 22 22 21 21 20 20 19 19 19 18 18 17 17 16 16 16 15 15 15 15 15 15 15 15 14 14 14 14 14 14 14 14 14 14 15 15 15 16 15
23 23 23 23 23 22 22 21 20 20 20 19 19 18 18 17 17 16 16 16 15 15 15 15 15 15 15 14 14 14 14 13 13 13 13 14 14 14 14 15 15 15 15
23 23 23 23 23 23 22 21 20 20 19 19 19 18 18 17 17 16 16 16 16 15 15 15 15 15 15 14 14 14 14 13 13 13 13 13 14 14 14 14 14 15 15
22 23 23 23 23 23 22 22 21 20 19 19 19 18 18 17 17 16 16 16 16 16 15 15 15 15 15 15 14 14 14 14 13 13 13 13 14 14 14 14 14 14 15
22 22 23 23 23 22 22 22 21 20 20 19 19 18 18 17 17 16 16 16 16 16 16 15 15 15 15 15 15 14 14 14 14 14 14 14 14 13 14 14 14 14 14
21 21 22 22 22 21 21 21 21 20 20 19 18 18 18 17 17 16 16 16 16 15 16 16 15 15 15 15 15 14 14 14 14 14 14 14 14 14 14 14 14 14 14
18 19 19 20 20 20 20 20 19 19 19 19 18 18 17 17 16 16 16 16 15 15 15 15 15 15 15 15 15 15 14 14 14 14 14 14 14 14 14 14 14 14 14
17 17 18 18 19 19 19 19 18 18 18 18 17 17 16 16 15 15 15 15 15 15 15 15 15 15 15 15 15 15 15 15 14 14 14 14 14 14 14 14 13 13 13
16 17 17 17 17 18 18 18 17 17 17 16 16 15 15 15 15 14 14 14 15 15 15 15 15 15 15 15 15 15 15 15 15 14 14 14 14 14 14 14 13 13 13
16 16 16 16 16 16 16 16 15 15 14 14 14 14 14 14 13 13 13 14 14 14 14 14 14 14 14 15 15 15 15 15 15 14 14 14 14 14 14 14 13 13 13
16 16 15 15 16 15 15 15 14 13 13 13 13 13 13 13 13 13 13 13 13 13 13 14 14 14 14 14 14 14 14 14 14 14 14 14 14 14 14 14 13 13 13
16 15 15 15 15 15 14 14 13 13 13 12 12 12 12 12 12 12 12 12 12 13 13 13 13 13 13 14 14 14 14 14 14 13 13 13 14 13 13 14 14 13 13
16 15 15 15 15 14 14 13 13 13 13 12 12 12 12 12 12 11 11 11 11 12 12 12 12 13 13 13 13 13 13 13 13 13 13 13 13 13 13 13 13 13 13
16 16 15 15 15 14 14 13 13 13 13 13 12 12 12 11 11 11 11 11 11 11 11 12 12 12 12 12 12 13 13 13 13 13 13 13 13 13 13 13 12 12 12
16 16 16 16 15 15 14 14 13 13 13 13 13 12 12 11 11 11 11 11 11 11 11 11 12 12 12 12 12 12 12 12 12 12 12 12 12 12 12 12 12 12 12
17 16 16 16 16 15 14 14 13 13 13 13 12 12 12 11 11 11 11 11 11 11 11 11 11 12 12 12 12 12 12 12 12 12 12 12 12 12 11 11 11 11 11
Wind_Speed
12 11 10 9 6 4 3 4 6 7 7 6 6 5 4 4 4 4 5 6 6 7 5 6 6 4 5 6 5 4 5 3 2 3 3 1 1 5 2 3 4 4 6
9 11 11 9 7 6 4 3 5 5 6 5 5 5 5 4 5 5 5 6 6 6 4 7 5 3 5 6 5 5 4 2 2 3 3 1 1 1 3 3 4 6 4
6 13 12 10 8 8 6 4 4 7 6 6 4 4 3 2 4 5 5 6 6 6 5 6 6 5 5 5 5 5 5 3 2 2 3 4 4 3 2 5 3 5 4
4 12 13 11 10 9 7 6 6 7 6 5 4 5 5 5 6 6 6 6 6 6 6 6 6 6 6 7 7 6 5 5 4 3 4 4 4 4 3 3 4 6 5
7 13 13 11 11 10 7 7 8 7 6 5 5 4 5 5 5 5 7 7 7 7 7 7 7 7 7 8 8 7 7 6 5 5 4 5 2 4 4 4 4 4 4
8 13 13 11 11 9 7 7 7 7 5 5 6 7 6 4 3 3 4 4 4 4 7 7 7 7 6 8 8 8 9 8 7 6 6 5 3 3 2 3 5 5 5
10 13 13 11 10 9 8 8 8 7 5 5 7 7 6 4 4 4 4 3 3 4 5 6 6 6 6 7 8 8 8 9 9 8 7 5 4 3 1 3 3 4 4
10 12 12 11 10 9 8 8 8 7 6 4 4 2 7 3 0 2 2 2 3 3 4 5 5 6 6 7 7 7 8 8 8 9 7 5 4 2 2 2 3 3 3
10 11 12 11 10 10 9 8 9 7 7 5 3 2 3 4 2 2 2 2 3 3 4 4 4 4 5 5 6 5 7 6 7 7 6 5 4 2 3 1 3 4 4
9 10 11 12 11 10 9 9 9 8 7 6 5 4 1 3 2 1 3 2 3 4 5 4 5 5 5 5 5 4 5 6 6 6 6 5 3 3 3 2 1 2 4
5 1 6 10 11 11 11 9 9 8 8 7 6 6 5 4 4 3 3 3 4 5 5 6 5 5 5 5 5 4 4 5 5 5 6 5 4 3 2 1 1 1 2
3 3 3 5 8 10 11 11 10 9 9 7 7 7 6 6 4 4 5 5 5 6 6 7 7 7 7 6 6 6 5 5 5 5 6 6 4 3 1 1 2 2 2
8 4 3 3 5 6 8 11 11 10 10 8 6 6 6 6 6 5 5 5 6 6 7 8 8 7 8 7 7 7 6 6 6 5 6 6 6 4 3 2 2 2 3
8 7 3 1 3 4 6 8 10 9 9 9 7 6 6 5 5 4 5 6 6 7 7 8 8 8 8 9 8 8 7 7 6 6 6 6 6 6 4 3 3 3 4
8 6 3 1 3 3 3 4 7 9 9 8 7 7 6 6 6 5 5 6 5 5 6 7 8 8 8 8 9 9 9 8 8 7 7 8 9 9 7 5 5 4 4
12 10 7 5 3 3 3 4 4 5 6 6 6 5 3 4 5 4 4 5 5 4 4 5 6 8 7 10 12 9 8 9 9 9 9 9 10 12 14 13 10 8 7
15 15 13 11 9 8 7 7 6 6 5 4 5 4 1 0 2 3 4 4 4 5 5 5 5 6 7 12 12 10 4 4 5 7 8 9 10 13 9 12 14 13 15
14 13 12 12 12 11 10 9 10 9 9 8 7 6 4 3 3 3 4 5 5 5 6 6 5 5 9 13 12 10 5 5 5 6 6 7 7 9 10 9 8 9 10
11 10 10 10 11 11 10 11 11 11 10 9 7 7 6 5 4 4 4 4 5 5 5 5 5 5 8 12 12 10 5 5 6 6 5 3 3 4 8 6 7 7 6
8 8 9 10 9 10 10 11 10 9 9 8 7 6 5 5 5 5 5 4 4 4 4 4 5 6 7 12 13 11 4 4 4 3 2 2 3 3 5 4 5 6 5
7 7 8 7 8 8 9 10 8 7 6 6 6 6 5 5 4 5 5 4 4 4 4 4 3 4 5 11 12 10 3 2 2 1 2 0 4 3 4 4 4 5 3
5 6 5 6 6 7 7 7 6 4 4 4 4 5 5 6 6 5 5 5 4 4 4 3 4 2 2 6 7 8 5 1 2 2 1 2 4 2 2 2 3 3 2
4 3 2 3 4 6 6 5 4 4 3 3 3 4 5 5 6 6 6 5 4 3 3 2 3 2 1 4 6 6 5 3 1 1 3 4 4 2 2 2 3 2 2
3 0 2 1 3 3 3 4 4 5 2 2 3 5 6 6 6 6 6 5 6 5 4 3 2 1 1 2 2 2 3 3 3 2 3 4 3 1 1 3 3 2 1
3 1 2 2 2 3 4 5 4 6 4 4 4 5 5 4 5 6 6 6 7 6 5 5 4 3 3 4 5 3 2 1 0 2 3 3 3 3 3 3 3 2 2
3 3 3 3 1 4 4 5 2 5 5 5 5 3 3 2 2 4 5 10 9 11 13 12 8 7 8 6 7 7 5 4 3 1 2 2 3 3 3 2 2 1 1
Wind_Direction
198 185 153 133 138 155 170 159 148 157 152 147 151 151 165 163 164 178 193 202 212 214 180 169 202 192 153 154 157 131 126 126 148 91 74 356 338 107 144 124 105 102 126
198 146 132 135 148 139 121 120 136 143 143 145 153 163 169 184 190 190 203 206 214 220 194 176 180 168 140 148 148 123 135 157 160 130 138 193 309 309 171 116 141 162 163
172 140 136 129 122 116 109 85 90 109 106 119 124 143 149 187 200 199 207 211 208 216 202 194 179 172 153 155 155 144 148 173 224 166 160 177 197 200 194 188 188 141 141
162 136 134 129 128 116 115 126 112 111 115 127 147 163 176 195 207 202 203 211 211 212 204 201 190 179 163 163 173 166 157 162 208 251 237 216 170 165 186 207 183 161 174
149 133 133 131 126 122 131 123 116 120 135 156 159 184 199 210 219 206 196 203 210 211 203 202 200 192 173 174 176 172 168 173 189 221 252 261 230 205 150 183 192 173 176
142 130 126 121 117 119 121 118 123 118 133 158 177 197 200 202 207 186 187 196 196 207 211 208 203 199 186 183 183 182 181 186 191 209 232 241 230 234 164 170 182 181 192
133 128 125 121 125 135 140 135 128 135 161 194 210 196 175 198 212 184 178 180 190 199 213 208 206 202 198 191 187 187 189 189 192 203 221 231 238 245 232 165 175 179 184
120 129 133 135 143 149 151 148 148 157 168 209 251 217 147 157 153 116 136 167 168 175 189 198 199 195 192 192 191 192 193 191 191 199 208 221 227 254 263 177 151 149 183
133 142 145 150 155 157 160 164 159 160 166 195 221 321 88 130 129 153 149 128 139 159 158 161 166 170 176 183 185 194 194 190 192 190 197 211 210 236 266 243 154 154 177
159 163 159 161 163 162 168 174 166 167 176 189 183 137 94 124 120 62 127 142 136 124 133 144 148 156 163 177 181 177 182 184 189 183 185 189 192 212 253 273 232 153 167
2 295 169 167 165 166 170 172 171 171 179 189 173 152 187 181 168 186 154 148 149 151 159 154 154 156 158 163 162 164 170 184 187 175 168 168 170 203 229 269 285 252 187
330 281 223 174 169 172 174 176 178 183 179 183 175 174 175 159 180 201 175 176 173 168 168 159 166 169 168 168 167 167 165 166 168 161 155 154 159 181 207 253 263 264 248
319 294 245 169 172 179 179 179 183 187 176 175 182 174 174 179 190 207 180 185 186 177 173 166 170 176 175 176 176 175 172 171 166 164 161 160 160 174 187 213 244 258 269
315 312 313 201 175 192 198 186 184 176 168 170 177 181 185 180 180 203 190 200 206 189 182 178 177 179 179 180 178 179 179 179 178 178 179 179 179 185 187 207 226 239 254
333 315 292 233 167 189 205 181 172 163 165 164 170 177 193 179 185 211 209 204 220 211 192 184 180 177 180 186 183 185 186 189 191 194 200 203 203 208 207 212 216 221 230
8 7 7 31 63 100 93 87 106 128 146 161 164 157 176 173 181 212 237 217 206 223 227 200 184 179 186 174 175 184 192 197 199 202 207 211 212 220 223 228 229 225 227
18 23 28 35 45 61 75 76 70 65 67 77 90 96 86 8 192 226 246 247 220 218 234 233 203 182 164 165 171 184 198 211 212 207 207 216 216 212 217 227 235 240 240
19 21 26 35 44 50 56 62 59 53 46 44 44 42 25 9 339 290 268 255 240 225 228 241 226 183 173 174 174 176 199 230 241 236 225 216 215 205 206 215 221 231 238
17 17 26 37 41 44 47 57 59 53 45 35 31 30 18 2 340 313 298 283 271 251 228 228 228 203 174 176 172 168 195 229 246 247 240 231 236 198 191 203 221 238 250
14 19 27 33 41 43 49 56 56 51 41 30 29 23 12 352 334 325 312 303 294 285 261 239 220 202 183 181 179 179 195 226 248 263 255 214 195 157 173 208 223 232 240
20 28 36 29 35 47 58 57 51 49 41 27 22 15 8 353 3 351 336 328 320 311 297 279 252 225 190 177 182 183 204 235 275 296 295 128 152 172 202 226 238 237 233
41 35 43 38 33 39 61 70 46 34 53 40 26 19 20 15 13 4 354 352 350 333 313 306 293 269 157 158 186 190 205 316 324 313 322 120 139 165 216 231 203 197 200
74 50 66 79 64 44 42 58 39 356 22 42 39 42 44 49 31 18 11 7 4 354 335 320 297 280 160 140 162 188 203 218 266 14 69 125 143 151 202 191 176 195 211
104 154 273 134 105 84 68 62 9 328 341 64 65 70 52 49 50 33 21 21 16 7 353 344 323 300 119 120 137 183 198 207 214 197 132 127 122 296 304 159 203 235 189
127 146 300 314 113 95 82 73 14 329 344 47 68 84 82 71 71 65 41 31 44 34 18 5 16 25 57 47 51 48 45 26 278 177 154 173 185 213 222 207 198 191 162
153 168 243 280 66 85 87 95 38 335 15 45 37 48 88 92 101 120 100 58 57 52 49 43 48 55 58 60 62 63 54 35 26 71 198 218 226 217 207 194 178 172 180
Height
1467 1470 1474 1478 1482 1487 1490 1492 1494 1496 1498 1499 1501 1504 1506 1507 1509 1510 1511 1513 1515 1518 1521 1522 1525 1528 1529 1531 1533 1536 1537 1540 1542 1544 1545 1546 1547 1546 1547 1548 1547 1547 1546
1462 1465 1469 1474 1480 1484 1487 1490 1492 1494 1495 1496 1498 1500 1503 1505 1506 1507 1509 1510 1512 1515 1517 1519 1522 1524 1526 1528 1530 1532 1534 1537 1539 1541 1543 1545 1547 1546 1547 1547 1548 1547 1547
1459 1462 1466 1472 1477 1482 1485 1487 1489 1491 1492 1493 1495 1497 1499 1501 1503 1504 1506 1507 1509 1511 1513 1516 1518 1520 1522 1524 1527 1529 1531 1534 1536 1539 1541 1542 1543 1544 1546 1546 1547 1547 1548
1458 1460 1465 1471 1476 1480 1483 1485 1487 1488 1489 1491 1492 1494 1496 1498 1500 1501 1503 1504 1506 1508 1509 1511 1514 1516 1518 1520 1523 1525 1527 1530 1532 1535 1537 1539 1540 1541 1543 1545 1546 1546 1547
1456 1460 1465 1470 1475 1478 1482 1484 1485 1486 1487 1489 1490 1492 1494 1496 1498 1499 1500 1501 1503 1504 1505 1507 1509 1511 1513 1515 1518 1521 1523 1525 1528 1531 1533 1535 1537 1538 1540 1541 1544 1545 1546
1455 1460 1465 1470 1474 1477 1480 1482 1484 1485 1486 1488 1489 1490 1493 1494 1496 1496 1498 1499 1499 1500 1501 1503 1504 1506 1508 1510 1513 1515 1518 1520 1523 1526 1529 1531 1533 1535 1537 1538 1540 1542 1543
1454 1459 1465 1469 1473 1476 1479 1481 1482 1484 1485 1487 1488 1490 1491 1492 1494 1495 1495 1496 1496 1497 1498 1499 1500 1501 1503 1505 1508 1510 1512 1515 1518 1521 1523 1526 1529 1532 1534 1535 1537 1539 1541
1455 1459 1464 1469 1472 1475 1478 1480 1481 1483 1484 1486 1488 1490 1490 1490 1492 1492 1493 1493 1494 1494 1495 1495 1496 1497 1499 1501 1502 1504 1507 1509 1512 1515 1518 1521 1524 1527 1530 1532 1534 1536 1538
1456 1459 1464 1468 1471 1474 1476 1479 1480 1482 1483 1485 1487 1488 1489 1489 1490 1490 1491 1491 1491 1492 1492 1492 1493 1494 1495 1496 1498 1500 1502 1504 1507 1509 1513 1516 1519 1522 1525 1528 1530 1533 1534
1457 1459 1462 1466 1469 1472 1475 1477 1479 1481 1482 1484 1485 1486 1487 1487 1488 1488 1489 1489 1490 1490 1490 1490 1491 1491 1492 1493 1494 1496 1497 1499 1502 1505 1508 1511 1514 1517 1521 1524 1526 1529 1531
1459 1459 1460 1463 1466 1470 1473 1475 1477 1479 1481 1482 1484 1484 1485 1486 1486 1487 1487 1487 1488 1488 1488 1489 1489 1490 1490 1491 1492 1493 1494 1496 1498 1500 1503 1506 1508 1513 1516 1519 1522 1525 1527
1459 1459 1460 1462 1464 1467 1469 1472 1474 1477 1478 1480 1482 1482 1484 1484 1485 1485 1486 1486 1487 1487 1488 1488 1489 1489 1489 1490 1491 1492 1493 1494 1495 1497 1499 1502 1505 1509 1512 1515 1518 1521 1523
1459 1459 1459 1460 1462 1465 1467 1469 1471 1473 1475 1477 1480 1481 1482 1482 1483 1484 1485 1485 1486 1486 1487 1488 1488 1488 1489 1489 1490 1491 1492 1493 1494 1495 1497 1499 1502 1505 1508 1511 1514 1517 1519
1459 1458 1458 1459 1460 1462 1464 1466 1469 1471 1473 1474 1477 1479 1480 1481 1481 1482 1483 1483 1485 1485 1486 1486 1487 1487 1488 1488 1489 1490 1491 1492 1493 1495 1496 1498 1500 1503 1505 1508 1511 1513 1515
1458 1457 1457 1457 1458 1460 1462 1463 1466 1468 1470 1473 1475 1476 1478 1479 1479 1480 1481 1481 1482 1483 1484 1485 1485 1485 1486 1487 1488 1489 1490 1491 1492 1494 1495 1497 1498 1500 1502 1504 1506 1509 1511
1460 1458 1457 1457 1457 1459 1460 1462 1464 1467 1470 1472 1473 1475 1476 1477 1477 1478 1479 1479 1480 1480 1482 1482 1483 1483 1484 1485 1487 1488 1489 1490 1491 1492 1493 1495 1496 1497 1499 1501 1503 1505 1507
1465 1462 1460 1459 1459 1460 1461 1463 1465 1467 1469 1471 1472 1473 1474 1475 1475 1475 1475 1476 1476 1477 1478 1479 1480 1481 1482 1483 1485 1486 1487 1488 1490 1491 1491 1492 1493 1495 1496 1497 1499 1500 1502
1470 1467 1465 1464 1463 1463 1464 1465 1466 1467 1469 1470 1470 1471 1471 1471 1471 1472 1472 1472 1473 1474 1474 1476 1477 1478 1479 1480 1482 1483 1485 1486 1487 1488 1489 1490 1491 1491 1492 1493 1494 1495 1497
1476 1473 1471 1469 1468 1467 1468 1467 1468 1468 1468 1469 1469 1468 1468 1468 1468 1468 1468 1469 1470 1470 1471 1472 1474 1475 1476 1477 1478 1480 1482 1483 1485 1486 1487 1487 1488 1488 1489 1490 1491 1491 1492
1480 1478 1476 1474 1472 1471 1471 1470 1470 1469 1469 1469 1468 1467 1466 1465 1465 1464 1464 1465 1466 1467 1468 1469 1470 1471 1472 1474 1476 1477 1479 1480 1482 1483 1484 1484 1485 1485 1485 1486 1486 1487 1488
1483 1481 1479 1478 1477 1475 1474 1473 1472 1471 1470 1469 1468 1467 1465 1464 1463 1462 1461 1461 1462 1463 1464 1465 1467 1468 1469 1470 1472 1474 1476 1478 1479 1480 1481 1481 1481 1482 1482 1482 1482 1483 1485
1485 1483 1482 1480 1479 1478 1476 1475 1474 1473 1472 1470 1469 1467 1465 1463 1462 1460 1459 1459 1459 1460 1461 1462 1463 1465 1466 1467 1469 1471 1473 1474 1476 1477 1478 1478 1478 1478 1478 1478 1479 1480 1481
1485 1484 1483 1483 1481 1480 1479 1477 1476 1474 1473 1471 1470 1468 1466 1464 1462 1460 1459 1458 1458 1459 1459 1460 1461 1462 1463 1464 1466 1468 1470 1471 1473 1474 1475 1475 1475 1475 1475 1476 1476 1477 1478
1485 1485 1484 1484 1483 1482 1480 1478 1476 1475 1474 1473 1471 1469 1467 1465 1463 1462 1460 1460 1459 1459 1459 1459 1460 1461 1462 1463 1464 1466 1468 1469 1471 1471 1472 1473 1473 1473 1473 1474 1475 1476 1476
1485 1484 1484 1484 1484 1482 1480 1478 1476 1475 1475 1473 1472 1470 1469 1467 1466 1464 1463 1462 1461 1461 1461 1460 1460 1461 1462 1463 1464 1465 1466 1468 1468 1469 1470 1470 1471 1471 1472 1472 1473 1474 1475
1484 1484 1484 1484 1484 1482 1481 1479 1477 1476 1475 1474 1473 1472 1471 1469 1468 1467 1466 1465 1464 1463 1463 1462 1461 1461 1462 1462 1463 1464 1465 1466 1467 1468 1468 1469 1469 1470 1471 1471 1472 1473 1473